Weather reports worldwide

Advertisment
Boscombe Down, United Kingdom (3746): temperature & dewpoint: 22.02.2020 08:00:00 - 28.02.2020 08:00:00 (GMT)Boscombe Down, United Kingdom (3746): wind speed & gusts: 22.02.2020 08:00:00 - 28.02.2020 08:00:00 (GMT)Boscombe Down, United Kingdom (3746): wind direction: 22.02.2020 08:00:00 - 28.02.2020 08:00:00 (GMT)Boscombe Down, United Kingdom (3746): reduced air pressure: 22.02.2020 08:00:00 - 28.02.2020 08:00:00 (GMT)Boscombe Down, United Kingdom (3746): visibility: 22.02.2020 08:00:00 - 28.02.2020 08:00:00 (GMT)Boscombe Down, United Kingdom (3746): precipitation: 22.02.2020 08:00:00 - 28.02.2020 08:00:00 (GMT)
Date & Time tt [°C] td [°C] ff [km/h] ff [kn] fx [km/h] fx [kn] dd ppp [hPa] vv [km] rr [mm]
28.02.2020 08:00:00 4,6 3,6 26 14 - - S 1009,3 8 -
28.02.2020 07:00:00 4,4 2,8 22 12 - - S 1010,6 10 0,0
28.02.2020 06:00:00 3,0 1,4 16 9 - - SSE 1012,0 40 0,0
28.02.2020 05:00:00 1,5 0,2 15 8 - - SE 1012,9 45 0,0
28.02.2020 04:00:00 0,4 -1,0 11 6 - - SSE 1013,8 45 0,0
28.02.2020 03:00:00 0,1 -1,0 9 5 - - SE 1014,7 40 0,0
28.02.2020 02:00:00 -0,2 -1,0 9 5 - - S 1015,5 45 0,0
28.02.2020 01:00:00 -0,7 -1,9 5 3 - - SSW 1015,7 30 0,0
28.02.2020 00:00:00 1,1 -0,5 13 7 - - WSW 1015,6 45 0,0
27.02.2020 23:00:00 1,5 -1,1 11 6 - - W 1015,5 45 0,0
27.02.2020 22:00:00 1,7 -2,0 8 4 - - WNW 1015,7 50 0,0
27.02.2020 21:00:00 2,0 -2,0 11 6 - - W 1015,0 50 0,0
27.02.2020 20:00:00 2,1 -2,3 13 7 - - W 1013,9 10 0,0
27.02.2020 19:00:00 3,8 -2,1 15 8 - - WNW 1013,1 50 0,0
27.02.2020 18:00:00 5,0 -1,9 18 10 - - WNW 1011,4 10 0,0
27.02.2020 17:00:00 6,8 -2,5 29 16 - - NW 1009,9 10 0,0
27.02.2020 16:00:00 7,7 -2,4 31 17 48 26 NW 1008,4 10 0,0
27.02.2020 15:00:00 8,1 -1,4 34 18 52 28 NW 1006,9 10 0,0
27.02.2020 14:00:00 8,1 0,6 37 20 61 33 NW 1005,3 40 0,0
27.02.2020 13:00:00 6,1 -0,1 42 23 59 32 NW 1003,9 10 0,0
27.02.2020 12:00:00 5,4 2,3 35 19 57 31 NNW 1002,7 35 0,0
27.02.2020 11:00:00 4,4 2,6 34 18 50 27 NNW 1000,9 10 0,0
27.02.2020 10:00:00 2,6 2,0 26 14 - - N 999,3 30 0,0
27.02.2020 09:00:00 1,7 1,4 26 14 - - N 997,7 15 0,6
27.02.2020 08:00:00 1,4 1,1 28 15 - - N 995,9 8 0,4
27.02.2020 07:00:00 2,3 1,7 22 12 - - NNE 994,5 7 0,4
27.02.2020 06:00:00 3,2 2,8 13 7 - - ENE 994,4 23 1,6
27.02.2020 05:00:00 3,2 2,9 15 8 - - E 995,7 8 1,8
27.02.2020 04:00:00 3,1 2,7 21 11 - - SE 996,8 19 1,6
27.02.2020 03:00:00 2,8 2,5 11 6 - - ESE 999,3 8 1,4
27.02.2020 02:00:00 2,9 1,6 8 4 - - SSE 1001,7 9 0,4
27.02.2020 01:00:00 2,9 0,4 8 4 - - SSE 1003,4 10 0,0
27.02.2020 00:00:00 2,2 0,0 8 4 - - S 1004,9 40 0,0
26.02.2020 23:00:00 2,4 -0,1 8 4 - - S 1006,4 30 0,0
26.02.2020 22:00:00 2,2 -0,5 8 4 - - SSW 1007,7 10 0,0
26.02.2020 21:00:00 3,1 -0,2 16 9 - - WSW 1008,4 40 0,0
26.02.2020 20:00:00 3,2 -0,1 15 8 - - WSW 1009,1 35 0,0
26.02.2020 19:00:00 3,6 -0,3 11 6 - - WSW 1009,5 45 0,0
26.02.2020 18:00:00 4,6 -0,4 18 10 - - W 1009,2 10 0,0
26.02.2020 17:00:00 5,6 0,3 24 13 - - W 1009,1 10 0,0
26.02.2020 16:00:00 7,3 0,0 29 16 - - WNW 1008,9 10 0,0
26.02.2020 15:00:00 6,7 0,6 26 14 48 26 WNW 1008,2 40 0,4
26.02.2020 14:00:00 6,7 0,2 29 16 48 26 WNW 1008,0 40 0,0
26.02.2020 13:00:00 6,6 0,6 34 18 54 29 WNW 1007,6 40 0,0
26.02.2020 12:00:00 6,7 0,4 39 21 54 29 WNW 1007,2 10 0,0
26.02.2020 11:00:00 6,3 0,5 37 20 52 28 WNW 1006,7 10 0,0
26.02.2020 10:00:00 5,3 0,9 31 17 54 29 W 1006,3 10 0,0
26.02.2020 09:00:00 4,5 0,5 35 19 54 29 W 1005,2 10 0,0
26.02.2020 08:00:00 3,3 0,3 37 20 50 27 WNW 1004,1 10 0,0
26.02.2020 07:00:00 2,5 -0,1 34 18 54 29 W 1003,0 10 0,0
26.02.2020 06:00:00 2,2 -0,3 28 15 - - W 1002,5 50 0,0
26.02.2020 05:00:00 1,6 -0,7 26 14 - - W 1001,6 10 0,0
26.02.2020 04:00:00 0,9 -1,3 21 11 - - WNW 1001,2 45 0,0
26.02.2020 03:00:00 0,8 -0,7 21 11 - - W 1000,6 45 0,0
26.02.2020 02:00:00 1,7 -1,3 22 12 - - W 1000,0 35 0,0
26.02.2020 01:00:00 1,8 -1,1 28 15 46 25 W 999,7 10 0,0
26.02.2020 00:00:00 2,2 -1,0 28 15 - - W 999,5 50 0,0
25.02.2020 23:00:00 2,0 -0,5 22 12 - - W 998,7 10 0,0
25.02.2020 22:00:00 1,9 0,3 24 13 - - W 998,7 10 0,0
25.02.2020 21:00:00 2,4 0,6 29 16 - - W 998,5 45 0,0
25.02.2020 20:00:00 2,0 0,3 28 15 59 32 W 998,4 50 0,0
25.02.2020 19:00:00 3,0 0,5 37 20 55 30 W 998,2 50 0,0
25.02.2020 18:00:00 3,6 0,7 37 20 65 35 W 997,7 45 0,4
25.02.2020 17:00:00 3,9 2,0 28 15 46 25 W 997,8 10 0,0
25.02.2020 16:00:00 3,9 2,2 21 11 50 27 WSW 998,1 10 1,0
25.02.2020 15:00:00 3,6 2,0 35 19 54 29 W 999,1 12 0,4
25.02.2020 14:00:00 6,2 3,2 24 13 57 31 W 999,6 30 0,6
25.02.2020 13:00:00 7,5 2,8 34 18 52 28 W 1000,5 10 0,0
25.02.2020 12:00:00 6,0 2,6 26 14 - - W 1001,5 10 0,0
25.02.2020 11:00:00 5,5 3,1 24 13 - - WSW 1001,9 10 0,0
25.02.2020 10:00:00 4,9 2,0 31 17 46 25 W 1002,7 10 0,0
25.02.2020 09:00:00 5,9 3,6 22 12 - - WSW 1003,0 10 0,0
25.02.2020 08:00:00 4,8 3,1 21 11 - - WSW 1003,5 10 0,0
25.02.2020 07:00:00 4,3 2,3 22 12 - - WSW 1003,9 10 0,0
25.02.2020 06:00:00 4,5 2,9 21 11 - - WSW 1004,7 50 0,0
25.02.2020 05:00:00 4,3 2,8 21 11 - - SW 1005,0 40 0,0
25.02.2020 04:00:00 4,5 2,9 16 9 - - WSW 1005,6 10 0,0
25.02.2020 03:00:00 5,5 3,5 22 12 - - W 1005,9 50 0,0
25.02.2020 02:00:00 6,0 4,1 18 10 - - WSW 1006,3 50 0,0
25.02.2020 01:00:00 6,2 4,0 28 15 - - W 1006,6 50 0,0
25.02.2020 00:00:00 6,1 3,9 21 11 - - W 1006,8 50 0,0
24.02.2020 23:00:00 7,3 4,4 28 15 - - W 1007,1 40 0,0
24.02.2020 22:00:00 6,9 4,6 22 12 - - W 1007,4 40 0,0
24.02.2020 21:00:00 7,2 4,7 24 13 - - W 1007,5 10 0,0
24.02.2020 20:00:00 7,8 5,3 28 15 57 31 W 1007,0 10 0,0
24.02.2020 19:00:00 8,6 6,0 35 19 52 28 W 1006,7 30 0,0
24.02.2020 18:00:00 9,9 7,0 34 18 57 31 W 1006,0 25 0,0
24.02.2020 17:00:00 10,9 8,5 35 19 59 32 W 1005,8 10 0,0
24.02.2020 16:00:00 11,2 9,5 39 21 50 27 WSW 1005,9 10 0,0
24.02.2020 15:00:00 10,6 9,8 31 17 50 27 SW 1006,1 10 0,0
24.02.2020 14:00:00 10,3 9,5 35 19 52 28 SW 1006,9 6 0,0
24.02.2020 13:00:00 10,1 9,3 37 20 55 30 SW 1007,3 10 1,6
24.02.2020 12:00:00 9,9 9,2 39 21 57 31 SW 1008,4 8 1,2
24.02.2020 11:00:00 9,9 9,0 41 22 68 37 SW 1009,0 7 0,2
24.02.2020 10:00:00 10,2 9,0 50 27 78 42 SW 1009,7 10 0,0
24.02.2020 09:00:00 10,4 8,7 52 28 78 42 SW 1009,8 10 0,0
24.02.2020 08:00:00 10,2 8,3 54 29 72 39 WSW 1010,9 10 0,0
24.02.2020 07:00:00 10,3 8,2 46 25 70 38 SW 1011,6 10 0,0
24.02.2020 06:00:00 9,9 9,2 37 20 46 25 SW 1013,7 45 0,2
24.02.2020 05:00:00 8,4 8,4 15 8 - - S 1014,9 2,1 0,2
24.02.2020 04:00:00 6,9 6,9 15 8 - - S 1017,1 3,1 0,6
24.02.2020 03:00:00 6,3 6,2 21 11 - - SSE 1018,7 4,9 1,8
24.02.2020 02:00:00 6,1 6,0 18 10 - - SE 1020,5 2,7 0,4
24.02.2020 01:00:00 6,1 5,8 13 7 - - SE 1022,1 5 0,2
24.02.2020 00:00:00 6,3 5,9 11 6 - - S 1022,8 8 0,2
23.02.2020 23:00:00 6,6 6,0 8 4 - - S 1023,7 10 0,2
23.02.2020 22:00:00 6,8 4,5 8 4 - - SSW 1024,4 40 0,0
23.02.2020 21:00:00 7,5 2,7 5 3 - - WNW 1024,2 10 0,0
23.02.2020 20:00:00 7,6 3,4 8 4 - - W 1024,1 50 0,0
23.02.2020 19:00:00 7,9 3,2 5 3 - - W 1023,8 50 0,0
23.02.2020 18:00:00 8,6 3,1 11 6 - - NW 1022,9 50 0,0
23.02.2020 17:00:00 9,5 4,2 15 8 - - NW 1021,9 50 0,0
23.02.2020 16:00:00 10,3 4,3 22 12 - - WNW 1020,4 50 0,0
23.02.2020 15:00:00 11,8 6,7 35 19 52 28 W 1019,2 30 0,0
23.02.2020 14:00:00 11,8 6,8 37 20 61 33 W 1018,1 45 0,0
23.02.2020 13:00:00 11,9 7,8 44 24 65 35 WNW 1016,8 27 0,0
23.02.2020 12:00:00 12,4 10,3 46 25 63 34 W 1015,8 40 0,2
23.02.2020 11:00:00 12,8 10,6 46 25 68 37 W 1014,6 10 0,2
23.02.2020 10:00:00 12,3 11,2 46 25 74 40 WSW 1013,6 5 0,0
23.02.2020 09:00:00 12,2 10,8 48 26 68 37 WSW 1013,0 40 0,0
23.02.2020 08:00:00 11,2 10,6 42 23 59 32 WSW 1013,3 7 0,2
23.02.2020 07:00:00 11,1 10,4 39 21 63 34 WSW 1013,0 4,4 0,0
23.02.2020 06:00:00 11,1 10,3 44 24 68 37 SW 1012,5 9 0,0
23.02.2020 05:00:00 11,4 10,5 48 26 68 37 WSW 1013,4 7 0,0
23.02.2020 04:00:00 11,4 10,3 48 26 74 40 SW 1013,6 50 0,0
23.02.2020 03:00:00 10,7 10,2 42 23 61 33 SW 1014,5 11 0,0
23.02.2020 02:00:00 9,0 8,7 28 15 - - SSW 1017,0 3,6 0,6
23.02.2020 01:00:00 8,5 7,3 24 13 - - SSW 1018,9 8 0,2
23.02.2020 00:00:00 8,7 6,2 24 13 - - WSW 1021,4 12 0,0
22.02.2020 23:00:00 9,0 6,0 24 13 - - WSW 1021,6 13 0,0
22.02.2020 22:00:00 9,0 5,7 24 13 46 25 WSW 1022,3 16 0,0
22.02.2020 21:00:00 8,3 5,8 24 13 48 26 WSW 1022,4 15 0,0
22.02.2020 20:00:00 8,8 5,3 34 18 46 25 WSW 1022,2 18 0,0
22.02.2020 19:00:00 8,3 5,5 29 16 - - WSW 1022,3 19 0,0
22.02.2020 18:00:00 8,7 6,1 26 14 52 28 WSW 1022,1 10 0,0
22.02.2020 17:00:00 10,2 5,3 31 17 52 28 W 1021,8 16 0,0
22.02.2020 16:00:00 10,9 5,3 26 14 54 29 W 1021,4 17 0,0
22.02.2020 15:00:00 11,3 5,7 34 18 54 29 WSW 1020,4 16 0,0
22.02.2020 14:00:00 11,8 5,9 37 20 59 32 W 1020,1 10 0,0
22.02.2020 13:00:00 12,1 5,7 37 20 57 31 W 1019,4 10 0,0
22.02.2020 12:00:00 11,9 6,3 35 19 52 28 W 1019,3 10 0,0
22.02.2020 11:00:00 11,3 6,4 34 18 61 33 W 1019,0 10 0,0
22.02.2020 10:00:00 10,6 9,3 37 20 52 28 WSW 1018,3 10 0,0
22.02.2020 09:00:00 10,0 9,3 35 19 52 28 SW 1017,5 7 0,0
22.02.2020 08:00:00 9,6 8,6 31 17 59 32 SW 1017,2 10 0,0

tt = temperature
td = dewpoint
ff = wind speed
fx = gusts
dd = wind direction
ppp = reduced air pressure
vv = visibility
rr = precipitation

Next stations